Regional Weather Roundup
Issued by NWS Charleston, SC

Current Version | Previous Version | Graphics & Text | Print | Product List | Glossary On
Versions: 1 2 3 4 5 6 7 8 9 10 11 12 13 14 15 16 17 18 19 20 21 22 23 24 25 26 27 28 29 30 31 32 33 34 35 36 37 38 39 40 41 42 43 44 45 46 47 48 49 50
000
ASUS42 KCHS 190625
RWRCHS

REGIONAL WEATHER ROUNDUP
NATIONAL WEATHER SERVICE CHARLESTON SC
200 AM EDT SAT APR 19 2014

NOTE: "FAIR" INDICATES FEW OR NO CLOUDS BELOW 12,000 FEET WITH NO
SIGNIFICANT WEATHER AND/OR OBSTRUCTIONS TO VISIBILITY.

NOT ALL STATIONS ARE QUALITY CONTROLLED BY THE NATIONAL
WEATHER SERVICE. USE DATA WITH CAUTION...ESPECIALLY
DEWPOINT OBSERVATIONS.

SCZ027-030-031-034>040-042>050-190700-
...SOUTH CAROLINA...

CITY           SKY/WX    TMP DP  RH WIND       PRES   REMARKS
N CHARLESTON   HVY RAIN  59  55  87 E15G24    29.96F FOG
6HR MIN TEMP:  59; 6HR MAX TEMP:  60; 6HR PCP:  1.53;

WATERFRONT PRK   N/A     61 N/A N/A NE51        N/A
FORT JOHNSON     N/A     57  57 100 E20G31    30.01F
MOUNT PLEASANT HVY RAIN N/A N/A N/A NE7       29.97F VSB 1
JOHNS ISLAND   RAIN      59  59 100 NE18G28   29.95S
PINOPOLIS        N/A     55  54  94 E20       29.91F
MONCKS CORNER  CLOUDY    57  57 100 E7G22     29.98F
SUMMERVILLE    NOT AVBL
BEAUFORT MCAS  RAIN      60  58  92 E10       29.95F FOG
6HR MIN TEMP:  59; 6HR MAX TEMP:  61; 6HR PCP:  0.74;

BEAUFORT ARPT  CLOUDY    61  61 100 NE14G21   29.93F
HILTON HEAD IS DRIZZLE   61  61 100 NE7       29.94F
GEORGETOWN     NOT AVBL
WALTERBORO     DRIZZLE   55 N/A N/A NE6       29.97F
ORANGEBURG     LGT RAIN  54  52  93 NE10      30.02S FOG
6HR MIN TEMP:  53; 6HR MAX TEMP:  55; 6HR PCP:  1.15;

BARNWELL       LGT RAIN  54  54 100 NE10G16   30.02S
AIKEN          DRIZZLE   52  52 100 NE14G22   30.06F
MANNING        CLOUDY    55 N/A N/A E8G16     30.00S
KINGSTREE      NOT AVBL
COLUMBIA       RAIN      53  51  93 N6        30.06F FOG
6HR MIN TEMP:  53; 6HR MAX TEMP:  55; 6HR PCP:  1.30;

SUMTER         HVY RAIN  52  52 100 NE10      30.02F
6HR MIN TEMP:  53; 6HR MAX TEMP:  53; 6HR PCP:  1.02;

FLORENCE       LGT RAIN  54  51  90 E21G29    30.03F
6HR MIN TEMP:  53; 6HR MAX TEMP:  56; 6HR PCP:  0.85;

MYRTLE BEACH   CLOUDY    55  54  94 NE15G22   30.03F
N MYRTLE BEACH LGT RAIN  54  52  93 NE21G26   30.05F
6HR MIN TEMP:  54; 6HR MAX TEMP:  57; 6HR PCP:  0.53;


$$

GAZ063-065-086>088-099>101-113>116-118-119-134-136>141-150-190700-
...GEORGIA...

CITY           SKY/WX    TMP DP  RH WIND       PRES   REMARKS
SAVANNAH ARPT  CLOUDY    61  58  90 NE7       29.94F
6HR MIN TEMP:  57; 6HR MAX TEMP:  61; 6HR PCP:  0.15;

HUNTER AAF     CLOUDY    61  61 100 NE6       29.91F
6HR MIN TEMP:  58; 6HR MAX TEMP:  62; 6HR PCP:  0.09;

FORT STEWART   CLOUDY    58  58 100 N6        29.91F
6HR MIN TEMP:  56; 6HR MAX TEMP:  58; 6HR PCP:  0.15;

STATESBORO     NOT AVBL
SYLVANIA       CLOUDY    57  55  91 NE7       29.98F
CLAXTON        CLOUDY   N/A N/A N/A NE3       29.95F
THOMSON        CLOUDY    50  50 100 N10G16    30.08F
AUGUSTA-BUSH   RAIN      53  50  89 NE8       30.03F FOG
6HR MIN TEMP:  52; 6HR MAX TEMP:  53; 6HR PCP:  0.92;

AUGUSTA-DANIEL LGT RAIN  53  51  93 N10       30.04F
SWAINSBORO     DRIZZLE   52  52 100 NE7       29.98F
VIDALIA        CLOUDY    54  54 100 N9        29.96F FOG
ALMA           CLOUDY    55  53  93 N7        29.93F FOG
6HR MIN TEMP:  55; 6HR MAX TEMP:  56; 6HR PCP:  0.16;

WAYCROSS       NOT AVBL
JESUP          RAIN      55  55 100 NE6       29.92F
BRUNSWICK      CLOUDY    63  61  94 CALM      29.91F
SAINT SIMONS   LGT RAIN  62  61  96 NW3       29.90F FOG
6HR MIN TEMP:  61; 6HR MAX TEMP:  62;


$$

SCZ027-028-034-036>038-045-046-048>050-GAZ119-141-190700-
...LAKE AND SUPPLEMENTAL COASTAL OBSERVATIONS...

STATION/POSITION TIME  TEMP    WIND        PRES    WAVE   SWELL
                       AIR SEA DIR/SP/G            HT/PER HT/PER/DIR
                 (UTC) (F)     (DEG/KT/KT) (MB)    (FT/S) (FT/S/D)
UPR LAKE MARION  NOT AVBL
WINYAH BAY       0600   57      40/ 25     1016.0S
LAKE MURRAY      0500   51      20/  3/  8 1017.9R
ACE BASIN NERRS  0600   59      50/  5     1014.0S
FORT PULASKI     0600   62 59   40/ 12/ 16 1013.3F
SAPELO ISLAND    0600   63      10/  5     1012.0F

$$

ANZ835-935-AMZ111-154-330-350-352-354-374-450-454-472-190700-
...C-MAN AND BUOY OBSERVATIONS...

STATION/POSITION TIME  TEMP    WIND        PRES    WAVE   SWELL
                       AIR SEA DIR/SP/G            HT/PER HT/PER/DIR
                 (UTC) (F)     (DEG/KT/KT) (MB)    (FT/S) (FT/S/D)
FOLLY BEACH CMAN 0600   59      50/ 25/ 29 1014.9F
BUOY 41004       NOT AVBL
BUOY 41008       0600   65 65  160/  6/  8 1012.6F   6/ 8   5/ 90/ 8
5E ST. MARYS GA  0600      64                N/A     5/ 7   2/ 90/11
FRYING PAN BUOY  0600   64 65   60/ 19/ 33 1015.1F   9/ 7   2/ 70/11
BUOY 41025       NOT AVBL
CAPE LOOKOUT NC  0600   55      30/ 23/ 27 1019.5F
BUOY 41002       NOT AVBL
BUOY 41010       0600   76 76  160/ 21/ 25 1014.2F   8/ 6   3/ 10/11
BUOY 41012       NOT AVBL
ST AUGUSTINE FL  0600   66     170/ 10/ 10 1013.4F
CAPERS NEARSHORE NOT AVBL
FRIPP NEARSHORE  0500   61      80/ 19/ 25   N/A


$$



USA.gov is the U.S. government's official web portal to all federal, state and local government web resources and services.